EW5345 Weather Reports


Display with metric or nautical units.
time (UTC)temp
F
wind
direction
speed
MPH
gust
MPH
rain 1hr
in
rain 24hr
in
rain mn
in
humidity
%
barometer
mb
20260510080041 65 63 7.0 16.0 0.00 0.06 0.00 80 1011.6
20260510074542 65 65 7.0 15.0 0.00 0.06 0.00 78 1011.7
20260510073040 65 30 9.0 25.0 0.00 0.06 0.00 77 1011.7
20260510071537 66 46 9.0 15.0 0.00 0.06 0.00 77 1011.6
20260510070033 66 49 7.0 14.0 0.00 0.06 0.00 77 1011.4
20260510064544 65 29 7.0 15.0 0.00 0.06 0.00 79 1011.3
20260510063028 65 47 8.0 14.0 0.00 0.06 0.00 79 1011.3
20260510061529 64 43 6.0 21.0 0.00 0.06 0.00 81 1011.1
20260510060022 64 55 7.0 18.0 0.00 0.06 0.00 81 1011.1
20260510054520 63 67 12.0 23.0 0.00 0.06 0.00 81 1010.9
20260510053035 63 62 11.0 28.0 0.00 0.06 0.00 81 1010.6
20260510051515 64 46 12.0 20.0 0.00 0.06 0.00 81 1010.5
20260510050036 64 59 13.0 23.0 0.00 0.06 0.00 80 1010.4
20260510044534 63 67 12.0 21.0 0.00 0.06 0.00 80 1010.5
20260510043029 63 15 12.0 28.0 0.00 0.06 0.00 79 1010.3
20260510041528 64 45 10.0 21.0 0.00 0.06 0.00 78 1010.5
20260510040028 64 49 11.0 21.0 0.00 0.06 0.00 76 1010.6
20260510034521 64 34 11.0 18.0 0.00 0.06 0.00 75 1010.6
20260510033020 64 45 9.0 17.0 0.00 0.06 0.00 75 1010.8
20260510031524 64 28 9.0 17.0 0.00 0.06 0.00 74 1010.7
20260510030016 64 41 9.0 17.0 0.00 0.06 0.00 74 1010.8
20260510024515 64 63 6.0 16.0 0.00 0.06 0.00 74 1010.9
20260510023014 63 62 11.0 18.0 0.00 0.06 0.00 74 1011.0
20260510021511 63 39 4.0 12.0 0.00 0.06 0.00 74 1011.0
20260510020011 63 42 3.0 10.0 0.00 0.06 0.00 74 1011.2
20260510014513 64 340 1.0 8.0 0.00 0.06 0.00 73 1011.3
20260510013009 63 9 2.0 11.0 0.00 0.06 0.00 73 1011.4
20260510011507 63 19 4.0 9.0 0.00 0.06 0.00 75 1011.5
20260510010006 63 44 2.0 15.0 0.00 0.06 0.00 76 1011.3
20260510004505 63 51 5.0 12.0 0.00 0.06 0.00 77 1011.2
20260510003004 63 49 5.0 14.0 0.00 0.06 0.00 77 1011.1
20260510001601 62 53 6.0 15.0 0.00 0.06 0.00 78 1011.2
20260510000125 62 44 7.0 15.0 0.00 0.06 0.00 79 1011.5
20260509234555 62 5 3.0 8.0 0.00 0.06 0.00 80 1011.5
20260509233053 62 46 4.0 12.0 0.00 0.06 0.00 79 1011.9
20260509231553 62 20 2.0 5.0 0.00 0.06 0.00 80 1012.3
20260509230057 62 60 4.0 6.0 0.00 0.06 0.00 80 1012.3
20260509224549 62 98 2.0 6.0 0.00 0.06 0.00 81 1012.0
20260509223048 62 45 4.0 11.0 0.00 0.06 0.00 82 1011.8
20260509221551 62 5 5.0 10.0 0.01 0.06 0.00 81 1012.1
20260509220045 61 87 6.0 13.0 0.01 0.06 0.00 83 1011.7
20260509214553 61 75 7.0 12.0 0.02 0.06 0.06 85 1011.6
20260509213038 61 38 4.0 10.0 0.04 0.06 0.06 84 1012.0
20260509211536 61 34 4.0 11.0 0.05 0.05 0.05 83 1012.6
20260509210044 61 61 5.0 14.0 0.05 0.05 0.05 84 1012.7
20260509204537 62 57 8.0 15.0 0.04 0.04 0.04 83 1012.3
20260509203038 64 55 14.0 22.0 0.02 0.02 0.02 77 1012.6
20260509201532 66 63 11.0 18.0 0.00 0.00 0.00 69 1013.1
20260509200038 66 47 8.0 17.0 0.00 0.00 0.00 67 1012.7
20260509194545 66 39 4.0 13.0 0.00 0.00 0.00 68 1012.6
20260509193037 66 28 8.0 15.0 0.00 0.00 0.00 68 1012.3
20260509191533 66 32 8.0 15.0 0.00 0.00 0.00 68 1012.1
20260509190031 66 34 6.0 17.0 0.00 0.00 0.00 67 1012.1
20260509184532 66 15 6.0 12.0 0.00 0.00 0.00 66 1012.2
20260509183034 66 65 7.0 16.0 0.00 0.00 0.00 65 1012.1
20260509181528 67 339 6.0 12.0 0.00 0.00 0.00 65 1012.3
20260509180026 67 80 7.0 14.0 0.00 0.00 0.00 64 1012.5
20260509174540 67 29 8.0 17.0 0.00 0.00 0.00 61 1012.1
20260509173026 67 38 8.0 15.0 0.00 0.00 0.00 61 1012.1
20260509171534 68 55 7.0 13.0 0.00 0.00 0.00 61 1012.5
20260509170024 68 80 8.0 14.0 0.00 0.00 0.00 61 1012.6
20260509164524 68 63 10.0 18.0 0.00 0.00 0.00 60 1012.1
20260509163035 68 33 4.0 16.0 0.00 0.00 0.00 61 1012.2
20260509161528 69 30 10.0 21.0 0.00 0.00 0.00 61 1012.0
20260509160024 69 39 13.0 22.0 0.00 0.00 0.00 60 1011.9
20260509154519 70 22 7.0 18.0 0.00 0.00 0.00 61 1012.2
20260509153032 71 61 6.0 12.0 0.00 0.00 0.00 62 1012.5
20260509151516 72 15 6.0 13.0 0.00 0.00 0.00 61 1012.7
20260509150023 72 24 4.0 14.0 0.00 0.00 0.00 61 1012.9
20260509144511 72 16 6.0 15.0 0.00 0.00 0.00 60 1013.0
20260509143010 72 45 4.0 12.0 0.00 0.00 0.00 58 1013.3
20260509141506 72 21 5.0 13.0 0.00 0.00 0.00 57 1013.5
20260509140004 71 87 6.0 17.0 0.00 0.00 0.00 59 1013.8
20260509134500 70 65 11.0 17.0 0.00 0.00 0.00 58 1014.1
20260509133059 70 89 11.0 22.0 0.00 0.00 0.00 59 1014.3
20260509131558 70 71 10.0 19.0 0.00 0.00 0.00 58 1014.4
20260509130056 70 52 10.0 20.0 0.00 0.00 0.00 56 1014.6
20260509124554 70 59 14.0 21.0 0.00 0.00 0.00 53 1014.7
20260509123114 71 91 11.0 23.0 0.00 0.00 0.00 53 1014.7
20260509121558 71 64 11.0 21.0 0.00 0.00 0.00 53 1015.1
20260509120049 71 47 11.0 22.0 0.00 0.00 0.00 52 1015.2
20260509114547 71 46 13.0 25.0 0.00 0.00 0.00 52 1015.3
20260509113045 71 80 13.0 20.0 0.00 0.00 0.00 52 1015.6
20260509111543 70 45 15.0 20.0 0.00 0.00 0.00 55 1015.6
20260509110042 71 44 11.0 18.0 0.00 0.00 0.00 54 1015.7
20260509104542 70 57 14.0 25.0 0.00 0.00 0.00 52 1015.9
20260509103047 70 88 12.0 20.0 0.00 0.00 0.00 53 1016.0
20260509101538 70 49 11.0 20.0 0.00 0.00 0.00 53 1016.0
20260509100038 71 63 14.0 21.0 0.00 0.00 0.00 51 1016.0
20260509094536 71 87 11.0 17.0 0.00 0.00 0.00 51 1016.2
20260509093040 70 105 6.0 19.0 0.00 0.00 0.00 54 1016.0
20260509091530 69 55 9.0 15.0 0.00 0.00 0.00 56 1016.1
20260509090027 69 75 7.0 15.0 0.00 0.00 0.00 59 1016.2
20260509084530 68 78 8.0 14.0 0.00 0.00 0.00 62 1016.3
20260509083022 68 61 3.0 12.0 0.00 0.00 0.00 68 1016.5
20260509081518 66 121 3.0 9.0 0.00 0.00 0.00 70 1016.6